Hourly Data Report for October 14, 2012

All times are specified in Local Standard Time (LST). Add 1 hour to adjust for Daylight Saving Time where and when it is observed.

IQALUIT CLIMATE
NUNAVUT

63°44'50.000" N
68°32'40.000" W
33.50 m
2402592
71321
XFB

Download Data

Hourly Data (October 2012)
Hourly Data Report for October 14, 2012
Temp Definition
°C
Dew Point Temp Definition
°C
Rel Hum Definition
%
Wind Dir Definition
10's deg

Wind Spd Definition
km/h
Visibility Definition
km
Stn Press Definition
kPa
Hmdx Definition


Wind Chill Definition


Weather Definition


TIME
00:00 0.9 0.2 95 33 15   99.47     LegendNANA
01:00 0.8 0.4 97 34 11   99.48     LegendNANA
02:00 1.0 0.3 95 36 11   99.51     LegendNANA
03:00 0.4 0.4 100 33 20   99.52     LegendNANA
04:00 -0.4 -0.4 100 33 22   99.56   -6 LegendNANA
05:00 -0.6 -0.6 100 33 22   99.60   -6 LegendNANA
06:00 -1.0 -1.0 100 33 26   99.65   -7 LegendNANA
07:00 -1.5 -1.7 99 34 32   99.67   -9 LegendNANA
08:00 -1.4 -1.7 98 33 24   99.70   -8 LegendNANA
09:00 -1.5 -1.5 100 34 26   99.72   -8 LegendNANA
10:00 -0.9 -1.3 97 33 30   99.71   -8 LegendNANA
11:00 -1.1 -1.7 96 33 32   99.76   -8 LegendNANA
12:00 -1.4 -2.3 94 33 35   99.82   -9 LegendNANA
13:00 -1.5 -2.5 93 34 35   99.87   -9 LegendNANA
14:00 -1.7 -2.7 93 33 35   99.95   -9 LegendNANA
15:00 -1.7 -2.9 91 34 39   99.98   -10 LegendNANA
16:00 -1.9 -3.0 92 34 41   100.03   -10 LegendNANA
17:00 -2.2 -3.0 94 34 43   100.05   -11 LegendNANA
18:00 -2.7 -3.6 94 34 44   100.10   -11 LegendNANA
19:00 -2.6 -3.4 94 34 43   100.14   -11 LegendNANA
20:00 -2.3 -3.4 92 34 39   100.21   -10 LegendNANA
21:00 -2.5 -3.4 94 33 37   100.26   -10 LegendNANA
22:00 -2.9 -3.6 95 33 35   100.24   -11 LegendNANA
23:00 -3.0 -4.2 91 33 35   100.25   -11 LegendNANA

Notes on Data Quality.

Legend

  • E = Estimated
  • M = Missing
  • NA = Not Available
  • ‡ = Partner data that is not subject to review by the National Climate Archives
Date modified: